Location: Gorze? G�rny
(49.8500°N, 19.5000°E)
Time: 05:25:37
(UTC+00:00)

Meteor 1-27 Rocket - Pass Details

Date: 13 May 2021
Orbit: 829 x 910 km, 81.3° (Epoch: 20 June)

Event Time Altitude Azimuth Distance (km) Brightness Sun altitude
Exits shadow 20:02:58 16° 165° (SSE) 2,151 5.3 -13.4°
Maximum altitude 20:07:28 52° 94° (E) 1,115 4.1 -13.9°
Drops below altitude 10° 20:13:12 10° 20° (NNE) 2,605 6.7 -14.4°
Sets 20:15:44 0° 16° (NNE) 3,554 7.5 -14.6°
